This demonstration page uses our WeatherBlox Daily Observations layout. Learn more.

38.89511, -77.03637

Hourly Observations for June 9, 2020

Temp ( °F °C ) Dew Point ( °F °C ) Humidity (%) Winds ( mph kmh ) Pressure ( in mb ) Visibility ( mi km ) Precip ( " mm )
12:52 am 00:52 Mostly Clear 70 21.1 54 12.2 57 57 SW 5 7 30.03 1017 10 16.0934 0 0
1:52 am 01:52 Clear 69 20.6 57 13.9 66 66 S 3 6 30.01 1016 10 16.0934 0 0
2:52 am 02:52 Mostly Clear 67 19.4 56 13.3 68 68 SW 3 6 30.01 1016 10 16.0934 0 0
3:52 am 03:52 Mostly Cloudy 67 19.4 59 15 76 76 SE 3 6 30 1016 10 16.0934 0 0
4:52 am 04:52 Partly Cloudy 68 20 59 15 73 73 Calm 29.99 1016 10 16.0934 0 0
5:52 am 05:52 Mostly Cloudy 67 19.4 60 15.6 79 79 Calm 29.99 1016 10 16.0934 0 0
6:52 am 06:52 Mostly Cloudy 70 21.1 61 16.1 73 73 Calm 30 1016 10 16.0934 0 0
7:52 am 07:52 Mostly Cloudy 72 22.2 65 18.3 79 79 SSE 6 9 30.01 1016 10 16.0934 0 0
8:52 am 08:52 Cloudy 75 23.9 65 18.3 71 71 S 7 11 30.01 1016 10 16.0934 0 0
9:52 am 09:52 Mostly Cloudy 78 25.6 65 18.3 64 64 S 7 11 30 1016 10 16.0934 0 0
10:52 am 10:52 Mostly Cloudy 81 27.2 66 18.9 61 61 S 7 11 29.99 1016 10 16.0934 0 0
11:52 am 11:52 Mostly Cloudy 83 28.3 68 20 61 61 S 8 13 29.98 1015 10 16.0934 0 0
12:52 pm 12:52 Mostly Cloudy 85 29.4 69 20.6 59 59 SSE 10 17 29.96 1015 10 16.0934 0 0
1:52 pm 13:52 Mostly Cloudy 86 30 72 22.2 63 63 S 15 24 29.95 1014 10 16.0934 0 0
2:52 pm 14:52 Mostly Cloudy 86 30 72 22.2 63 63 S 14 22 29.94 1014 10 16.0934 0 0
3:52 pm 15:52 Mostly Cloudy 88 31.1 72 22.2 59 59 S 9 15 29.92 1013 10 16.0934 0 0
4:52 pm 16:52 Mostly Cloudy 88 31.1 73 22.8 61 61 SSE 13 20 29.91 1013 10 16.0934 0 0
5:52 pm 17:52 Mostly Cloudy 87 30.6 73 22.8 63 63 S 10 17 29.91 1013 10 16.0934 0 0
6:52 pm 18:52 Mostly Cloudy 86 30 73 22.8 65 65 S 9 15 29.91 1013 10 16.0934 0 0
7:52 pm 19:52 Mostly Cloudy 84 28.9 73 22.8 70 70 S 9 15 29.91 1013 10 16.0934 0 0
8:52 pm 20:52 Mostly Cloudy 82 27.8 74 23.3 77 77 S 8 13 29.91 1013 10 16.0934 0 0
9:52 pm 21:52 Mostly Cloudy 82 27.8 73 22.8 74 74 S 8 13 29.92 1013 10 16.0934 0 0
10:52 pm 22:52 Mostly Cloudy 80 26.7 71 21.7 74 74 S 7 11 29.94 1014 10 16.0934 0 0
11:52 pm 23:52 Clear 80 26.7 71 21.7 74 74 S 9 15 29.95 1014 10 16.0934 0 0

Powered by AerisWeather